| time (UTC) | temp C | wind direction | speed KPH | gust KPH | rain 1hr cm | rain 24hr cm | rain mn cm | humidity % | barometer mb |
| 20260507085537 | 1 | 68 | 0.0 | 9.7 | 0.00 | 0.00 | 0.00 | 89 | 1013.3 |
| 20260507085035 | 1 | 0 | 1.6 | 9.7 | 0.00 | 0.00 | 0.00 | 89 | 1013.1 |
| 20260507084545 | 1 | 53 | 1.6 | 9.7 | 0.00 | 0.00 | 0.00 | 89 | 1013.0 |
| 20260507084035 | 1 | 223 | 1.6 | 11.3 | 0.00 | 0.00 | 0.00 | 90 | 1013.0 |
| 20260507083535 | 0 | 105 | 3.2 | 11.3 | 0.00 | 0.00 | 0.00 | 89 | 1012.9 |
| 20260507083049 | 1 | 45 | 0.0 | 8.0 | 0.00 | 0.00 | 0.00 | 89 | 1012.9 |
| 20260507082535 | 1 | 51 | 1.6 | 6.4 | 0.00 | 0.00 | 0.00 | 89 | 1013.0 |
| 20260507082038 | 1 | 0 | 0.0 | 6.4 | 0.00 | 0.00 | 0.00 | 89 | 1012.9 |
| 20260507081547 | 1 | 0 | 1.6 | 14.5 | 0.00 | 0.00 | 0.00 | 89 | 1012.9 |
| 20260507081035 | 1 | 36 | 3.2 | 16.1 | 0.00 | 0.00 | 0.00 | 89 | 1012.9 |
| 20260507080534 | 1 | 36 | 4.8 | 16.1 | 0.00 | 0.00 | 0.00 | 89 | 1012.8 |
| 20260507080052 | 1 | 243 | 4.8 | 16.1 | 0.00 | 0.00 | 0.00 | 88 | 1012.7 |
| 20260507075537 | 1 | 0 | 0.0 | 11.3 | 0.00 | 0.00 | 0.00 | 88 | 1012.7 |
| 20260507075038 | 1 | 59 | 4.8 | 14.5 | 0.00 | 0.00 | 0.00 | 87 | 1012.6 |
| 20260507074544 | 1 | 346 | 4.8 | 14.5 | 0.00 | 0.00 | 0.00 | 84 | 1012.6 |
| 20260507074038 | 2 | 338 | 1.6 | 9.7 | 0.00 | 0.00 | 0.00 | 84 | 1012.5 |
| 20260507073539 | 2 | 43 | 3.2 | 9.7 | 0.00 | 0.00 | 0.00 | 78 | 1012.5 |
| 20260507073055 | 2 | 241 | 3.2 | 9.7 | 0.00 | 0.00 | 0.00 | 78 | 1012.5 |
| 20260507072540 | 2 | 196 | 0.0 | 11.3 | 0.00 | 0.00 | 0.00 | 80 | 1012.6 |
| 20260507072038 | 2 | 187 | 1.6 | 11.3 | 0.00 | 0.00 | 0.00 | 78 | 1012.5 |
| 20260507071547 | 2 | 171 | 1.6 | 8.0 | 0.00 | 0.00 | 0.00 | 82 | 1012.5 |
| 20260507071038 | 2 | 31 | 3.2 | 8.0 | 0.00 | 0.00 | 0.00 | 83 | 1012.5 |
| 20260507070538 | 2 | 269 | 0.0 | 11.3 | 0.00 | 0.00 | 0.00 | 78 | 1012.4 |
| 20260507070046 | 2 | 0 | 3.2 | 11.3 | 0.00 | 0.00 | 0.00 | 79 | 1012.3 |
| 20260507065540 | 2 | 346 | 3.2 | 9.7 | 0.00 | 0.00 | 0.00 | 82 | 1012.4 |
| 20260507065037 | 2 | 35 | 1.6 | 9.7 | 0.00 | 0.00 | 0.00 | 79 | 1012.3 |
| 20260507064544 | 2 | 0 | 1.6 | 6.4 | 0.00 | 0.00 | 0.00 | 77 | 1012.1 |
| 20260507064037 | 2 | 163 | 0.0 | 3.2 | 0.00 | 0.00 | 0.00 | 79 | 1012.2 |
| 20260507063536 | 2 | 163 | 0.0 | 6.4 | 0.00 | 0.00 | 0.00 | 78 | 1012.2 |
| 20260507063050 | 2 | 163 | 1.6 | 6.4 | 0.00 | 0.00 | 0.00 | 77 | 1012.1 |
| 20260507062537 | 2 | 110 | 1.6 | 4.8 | 0.00 | 0.00 | 0.00 | 78 | 1012.2 |
| 20260507062037 | 2 | 143 | 0.0 | 16.1 | 0.00 | 0.00 | 0.00 | 77 | 1012.0 |
| 20260507061549 | 2 | 0 | 0.0 | 16.1 | 0.00 | 0.00 | 0.00 | 76 | 1012.0 |
| 20260507061037 | 2 | 193 | 4.8 | 16.1 | 0.00 | 0.00 | 0.00 | 76 | 1012.0 |
| 20260507060534 | 2 | 242 | 1.6 | 8.0 | 0.00 | 0.00 | 0.00 | 77 | 1011.9 |
| 20260507060056 | 2 | 120 | 1.6 | 8.0 | 0.00 | 0.00 | 0.00 | 78 | 1011.9 |
| 20260507055539 | 2 | 0 | 0.0 | 9.7 | 0.00 | 0.00 | 0.00 | 80 | 1011.9 |
| 20260507055037 | 2 | 0 | 0.0 | 11.3 | 0.00 | 0.00 | 0.00 | 79 | 1011.9 |
| 20260507054549 | 2 | 227 | 1.6 | 11.3 | 0.00 | 0.00 | 0.00 | 78 | 1011.8 |
| 20260507054037 | 2 | 173 | 0.0 | 12.9 | 0.00 | 0.00 | 0.00 | 79 | 1011.9 |
| 20260507053538 | 2 | 200 | 3.2 | 12.9 | 0.00 | 0.00 | 0.00 | 79 | 1011.8 |
| 20260507053053 | 2 | 205 | 3.2 | 9.7 | 0.00 | 0.00 | 0.00 | 80 | 1011.9 |
| 20260507052537 | 2 | 192 | 0.0 | 9.7 | 0.00 | 0.00 | 0.00 | 81 | 1011.9 |
| 20260507052037 | 2 | 0 | 0.0 | 0.0 | 0.00 | 0.00 | 0.00 | 82 | 1011.8 |
| 20260507051545 | 2 | 0 | 0.0 | 0.0 | 0.00 | 0.00 | 0.00 | 83 | 1011.8 |
| 20260507051039 | 2 | 0 | 0.0 | 3.2 | 0.00 | 0.00 | 0.00 | 82 | 1011.7 |
| 20260507050536 | 2 | 0 | 0.0 | 22.5 | 0.00 | 0.00 | 0.00 | 82 | 1011.7 |
| 20260507050044 | 2 | 195 | 3.2 | 22.5 | 0.00 | 0.00 | 0.00 | 81 | 1011.7 |
| 20260507045538 | 2 | 229 | 8.0 | 20.9 | 0.00 | 0.00 | 0.00 | 80 | 1011.7 |
| 20260507045034 | 2 | 213 | 4.8 | 17.7 | 0.00 | 0.00 | 0.00 | 77 | 1011.7 |
| 20260507044557 | 2 | 217 | 8.0 | 17.7 | 0.00 | 0.00 | 0.00 | 77 | 1011.7 |
| 20260507044034 | 3 | 209 | 4.8 | 19.3 | 0.00 | 0.00 | 0.00 | 76 | 1011.7 |
| 20260507043534 | 3 | 232 | 8.0 | 24.1 | 0.00 | 0.00 | 0.00 | 75 | 1011.7 |
| 20260507043047 | 3 | 223 | 11.3 | 24.1 | 0.00 | 0.00 | 0.00 | 76 | 1011.7 |
| 20260507042535 | 3 | 235 | 8.0 | 19.3 | 0.00 | 0.00 | 0.00 | 74 | 1011.6 |
| 20260507042037 | 3 | 240 | 4.8 | 20.9 | 0.00 | 0.00 | 0.00 | 75 | 1011.5 |
| 20260507041548 | 3 | 234 | 9.7 | 20.9 | 0.00 | 0.00 | 0.00 | 75 | 1011.5 |
| 20260507041037 | 3 | 216 | 8.0 | 24.1 | 0.00 | 0.00 | 0.00 | 76 | 1011.4 |
| 20260507040537 | 3 | 230 | 8.0 | 24.1 | 0.00 | 0.00 | 0.00 | 75 | 1011.3 |
| 20260507040047 | 3 | 232 | 9.7 | 24.1 | 0.00 | 0.00 | 0.00 | 73 | 1011.3 |
| 20260507035534 | 3 | 257 | 9.7 | 24.1 | 0.00 | 0.00 | 0.00 | 71 | 1011.2 |
| 20260507035035 | 3 | 240 | 8.0 | 19.3 | 0.00 | 0.00 | 0.00 | 71 | 1011.3 |
| 20260507034544 | 3 | 213 | 9.7 | 22.5 | 0.00 | 0.00 | 0.00 | 69 | 1011.3 |
| 20260507034037 | 3 | 217 | 8.0 | 22.5 | 0.00 | 0.00 | 0.00 | 69 | 1011.2 |
| 20260507033541 | 4 | 232 | 9.7 | 22.5 | 0.00 | 0.00 | 0.00 | 69 | 1011.1 |
| 20260507033048 | 4 | 0 | 3.2 | 11.3 | 0.00 | 0.00 | 0.00 | 69 | 1011.2 |
| 20260507032539 | 4 | 0 | 4.8 | 17.7 | 0.00 | 0.00 | 0.00 | 68 | 1011.1 |
| 20260507032038 | 3 | 242 | 4.8 | 17.7 | 0.00 | 0.00 | 0.00 | 70 | 1011.1 |
| 20260507031547 | 3 | 217 | 8.0 | 24.1 | 0.00 | 0.00 | 0.00 | 69 | 1011.1 |
| 20260507031038 | 3 | 236 | 6.4 | 24.1 | 0.00 | 0.00 | 0.00 | 70 | 1010.9 |
| 20260507030538 | 3 | 229 | 11.3 | 24.1 | 0.00 | 0.00 | 0.00 | 70 | 1011.0 |
| 20260507030054 | 3 | 220 | 8.0 | 19.3 | 0.00 | 0.00 | 0.00 | 70 | 1011.0 |
| 20260507025539 | 3 | 257 | 8.0 | 20.9 | 0.00 | 0.00 | 0.00 | 70 | 1011.0 |
| 20260507025035 | 4 | 245 | 9.7 | 20.9 | 0.00 | 0.00 | 0.00 | 70 | 1010.9 |
| 20260507024552 | 3 | 0 | 3.2 | 12.9 | 0.00 | 0.00 | 0.00 | 75 | 1010.9 |
| 20260507024037 | 3 | 46 | 0.0 | 6.4 | 0.00 | 0.00 | 0.00 | 84 | 1011.1 |
| 20260507023538 | 3 | 0 | 0.0 | 9.7 | 0.00 | 0.00 | 0.00 | 85 | 1011.0 |
| 20260507023040 | 3 | 46 | 1.6 | 9.7 | 0.00 | 0.00 | 0.00 | 84 | 1010.9 |
| 20260507022537 | 4 | 39 | 1.6 | 6.4 | 0.00 | 0.00 | 0.00 | 83 | 1010.8 |
| 20260507022037 | 4 | 46 | 1.6 | 8.0 | 0.00 | 0.00 | 0.00 | 82 | 1010.8 |
| 20260507021540 | 4 | 0 | 0.0 | 8.0 | 0.00 | 0.00 | 0.00 | 83 | 1010.8 |
| 20260507021040 | 4 | 352 | 3.2 | 8.0 | 0.00 | 0.00 | 0.00 | 81 | 1010.8 |
| 20260507020538 | 4 | 41 | 3.2 | 9.7 | 0.00 | 0.00 | 0.00 | 81 | 1010.8 |
| 20260507020050 | 5 | 35 | 1.6 | 11.3 | 0.00 | 0.00 | 0.00 | 80 | 1010.9 |
| 20260507015535 | 5 | 319 | 3.2 | 11.3 | 0.00 | 0.00 | 0.00 | 73 | 1010.7 |
| 20260507015035 | 5 | 49 | 3.2 | 9.7 | 0.00 | 0.00 | 0.00 | 77 | 1010.7 |
| 20260507014545 | 5 | 171 | 0.0 | 9.7 | 0.00 | 0.00 | 0.00 | 71 | 1010.7 |
| 20260507014037 | 5 | 154 | 1.6 | 9.7 | 0.00 | 0.00 | 0.00 | 69 | 1010.8 |
| 20260507013538 | 5 | 0 | 3.2 | 12.9 | 0.00 | 0.00 | 0.00 | 66 | 1010.6 |
| 20260507013057 | 5 | 167 | 3.2 | 14.5 | 0.00 | 0.00 | 0.00 | 67 | 1010.7 |
| 20260507012547 | 5 | 113 | 1.6 | 16.1 | 0.00 | 0.00 | 0.00 | 67 | 1010.7 |
| 20260507012037 | 5 | 206 | 8.0 | 20.9 | 0.00 | 0.00 | 0.00 | 67 | 1010.7 |
| 20260507011544 | 5 | 207 | 8.0 | 20.9 | 0.00 | 0.00 | 0.00 | 67 | 1010.6 |
| 20260507011037 | 5 | 244 | 4.8 | 19.3 | 0.00 | 0.00 | 0.00 | 67 | 1010.6 |
| 20260507010537 | 5 | 221 | 8.0 | 19.3 | 0.00 | 0.00 | 0.00 | 67 | 1010.5 |
| 20260507010044 | 5 | 217 | 6.4 | 19.3 | 0.00 | 0.00 | 0.00 | 67 | 1010.6 |
| 20260507005538 | 5 | 223 | 8.0 | 19.3 | 0.00 | 0.00 | 0.00 | 67 | 1010.6 |
| 20260507005036 | 5 | 235 | 6.4 | 17.7 | 0.00 | 0.00 | 0.00 | 67 | 1010.5 |
| 20260507004539 | 5 | 175 | 6.4 | 22.5 | 0.00 | 0.00 | 0.00 | 67 | 1010.4 |
| 20260507004038 | 5 | 186 | 11.3 | 22.5 | 0.00 | 0.00 | 0.00 | 67 | 1010.4 |
| 20260507003537 | 5 | 223 | 9.7 | 20.9 | 0.00 | 0.00 | 0.00 | 67 | 1010.4 |
| 20260507003046 | 5 | 229 | 9.7 | 19.3 | 0.00 | 0.00 | 0.00 | 66 | 1010.4 |
| 20260507002536 | 5 | 185 | 9.7 | 16.1 | 0.00 | 0.00 | 0.00 | 65 | 1010.4 |
| 20260507002037 | 5 | 282 | 8.0 | 16.1 | 0.00 | 0.00 | 0.00 | 66 | 1010.4 |
| 20260507001547 | 5 | 209 | 8.0 | 17.7 | 0.00 | 0.00 | 0.00 | 65 | 1010.3 |
| 20260507001037 | 5 | 246 | 9.7 | 20.9 | 0.00 | 0.00 | 0.00 | 65 | 1010.2 |
| 20260507000538 | 5 | 215 | 8.0 | 22.5 | 0.00 | 0.00 | 0.00 | 66 | 1010.3 |
| 20260507000052 | 6 | 228 | 6.4 | 22.5 | 0.00 | 0.00 | 0.00 | 66 | 1010.3 |
| 20260506235537 | 6 | 234 | 11.3 | 25.7 | 0.00 | 0.00 | 0.00 | 65 | 1010.3 |
| 20260506235040 | 6 | 271 | 9.7 | 25.7 | 0.00 | 0.00 | 0.00 | 66 | 1010.1 |
| 20260506234554 | 6 | 198 | 6.4 | 19.3 | 0.00 | 0.00 | 0.00 | 68 | 1010.1 |
| 20260506234041 | 5 | 194 | 9.7 | 19.3 | 0.00 | 0.00 | 0.00 | 68 | 1010.1 |
| 20260506233538 | 5 | 201 | 8.0 | 19.3 | 0.00 | 0.00 | 0.00 | 68 | 1010.1 |
| 20260506233050 | 5 | 199 | 6.4 | 19.3 | 0.00 | 0.00 | 0.00 | 68 | 1010.1 |
| 20260506232537 | 5 | 225 | 8.0 | 19.3 | 0.00 | 0.00 | 0.00 | 68 | 1010.1 |
| 20260506232035 | 5 | 230 | 8.0 | 17.7 | 0.00 | 0.00 | 0.00 | 68 | 1010.0 |
| 20260506231546 | 5 | 250 | 8.0 | 19.3 | 0.00 | 0.00 | 0.00 | 67 | 1010.0 |
| 20260506231037 | 5 | 250 | 8.0 | 19.3 | 0.00 | 0.00 | 0.00 | 68 | 1010.0 |
| 20260506230537 | 6 | 225 | 6.4 | 19.3 | 0.00 | 0.00 | 0.00 | 67 | 1010.0 |
| 20260506230049 | 6 | 202 | 4.8 | 20.9 | 0.00 | 0.00 | 0.00 | 69 | 1009.9 |
| 20260506225537 | 6 | 191 | 11.3 | 20.9 | 0.00 | 0.00 | 0.00 | 65 | 1009.9 |
| 20260506225035 | 6 | 250 | 9.7 | 19.3 | 0.00 | 0.00 | 0.00 | 65 | 1009.8 |
| 20260506224600 | 6 | 218 | 8.0 | 16.1 | 0.00 | 0.00 | 0.00 | 65 | 1009.7 |
| 20260506224037 | 6 | 192 | 8.0 | 24.1 | 0.00 | 0.00 | 0.00 | 64 | 1009.8 |
| 20260506223536 | 6 | 143 | 9.7 | 24.1 | 0.00 | 0.00 | 0.00 | 65 | 1009.8 |
| 20260506223052 | 6 | 207 | 11.3 | 24.1 | 0.00 | 0.00 | 0.00 | 66 | 1009.7 |
| 20260506222538 | 6 | 208 | 9.7 | 19.3 | 0.00 | 0.00 | 0.00 | 65 | 1009.7 |
| 20260506222037 | 6 | 225 | 11.3 | 19.3 | 0.00 | 0.00 | 0.00 | 65 | 1009.6 |
| 20260506221554 | 6 | 198 | 8.0 | 19.3 | 0.00 | 0.00 | 0.00 | 66 | 1009.5 |
| 20260506221051 | 6 | 236 | 9.7 | 20.9 | 0.00 | 0.00 | 0.00 | 66 | 1009.7 |
| 20260506220538 | 6 | 171 | 8.0 | 20.9 | 0.00 | 0.00 | 0.00 | 68 | 1009.5 |
| 20260506220049 | 6 | 215 | 8.0 | 19.3 | 0.00 | 0.00 | 0.00 | 67 | 1009.6 |
| 20260506215536 | 6 | 203 | 6.4 | 24.1 | 0.00 | 0.00 | 0.00 | 67 | 1009.5 |
| 20260506215035 | 5 | 194 | 11.3 | 24.1 | 0.00 | 0.00 | 0.00 | 67 | 1009.5 |
| 20260506214605 | 5 | 225 | 9.7 | 20.9 | 0.00 | 0.00 | 0.00 | 67 | 1009.5 |
| 20260506214036 | 6 | 216 | 9.7 | 22.5 | 0.00 | 0.00 | 0.00 | 65 | 1009.5 |
| 20260506213538 | 6 | 251 | 9.7 | 22.5 | 0.00 | 0.00 | 0.00 | 66 | 1009.5 |
| 20260506213048 | 6 | 207 | 9.7 | 20.9 | 0.00 | 0.00 | 0.00 | 67 | 1009.4 |
| 20260506212537 | 6 | 215 | 9.7 | 19.3 | 0.00 | 0.00 | 0.00 | 66 | 1009.2 |
| 20260506212037 | 6 | 232 | 4.8 | 16.1 | 0.00 | 0.00 | 0.00 | 63 | 1009.2 |
| 20260506211548 | 7 | 179 | 1.6 | 12.9 | 0.00 | 0.00 | 0.00 | 62 | 1009.3 |
| 20260506211035 | 6 | 202 | 3.2 | 12.9 | 0.00 | 0.00 | 0.00 | 63 | 1009.1 |
| 20260506210537 | 6 | 208 | 4.8 | 12.9 | 0.00 | 0.00 | 0.00 | 67 | 1009.2 |
| 20260506210042 | 6 | 205 | 4.8 | 11.3 | 0.00 | 0.00 | 0.00 | 64 | 1009.1 |
| 20260506205536 | 6 | 153 | 3.2 | 11.3 | 0.00 | 0.00 | 0.00 | 68 | 1009.1 |
| 20260506205035 | 6 | 211 | 4.8 | 12.9 | 0.00 | 0.00 | 0.00 | 68 | 1009.1 |
| 20260506204559 | 6 | 0 | 4.8 | 14.5 | 0.00 | 0.00 | 0.00 | 65 | 1009.1 |
| 20260506204035 | 6 | 207 | 4.8 | 17.7 | 0.00 | 0.00 | 0.00 | 65 | 1009.0 |
| 20260506203535 | 5 | 269 | 6.4 | 17.7 | 0.00 | 0.00 | 0.00 | 66 | 1008.9 |
| 20260506203052 | 6 | 212 | 6.4 | 14.5 | 0.00 | 0.00 | 0.00 | 65 | 1008.9 |
| 20260506202536 | 6 | 218 | 3.2 | 9.7 | 0.00 | 0.00 | 0.00 | 66 | 1008.9 |
| 20260506202036 | 6 | 11 | 3.2 | 9.7 | 0.00 | 0.00 | 0.00 | 67 | 1008.8 |
| 20260506201549 | 5 | 76 | 3.2 | 11.3 | 0.00 | 0.00 | 0.00 | 67 | 1008.8 |
| 20260506201036 | 6 | 182 | 3.2 | 12.9 | 0.00 | 0.00 | 0.00 | 68 | 1008.7 |
| 20260506200535 | 5 | 169 | 4.8 | 12.9 | 0.00 | 0.00 | 0.00 | 68 | 1008.7 |
| 20260506200044 | 5 | 192 | 1.6 | 6.4 | 0.00 | 0.00 | 0.00 | 69 | 1008.7 |
| 20260506195535 | 5 | 181 | 1.6 | 8.0 | 0.00 | 0.00 | 0.00 | 69 | 1008.6 |
| 20260506195040 | 4 | 0 | 1.6 | 11.3 | 0.00 | 0.00 | 0.00 | 69 | 1008.5 |
| 20260506194557 | 5 | 0 | 1.6 | 11.3 | 0.00 | 0.00 | 0.00 | 70 | 1008.6 |
| 20260506194040 | 5 | 209 | 3.2 | 9.7 | 0.00 | 0.00 | 0.00 | 68 | 1008.6 |
| 20260506193537 | 5 | 211 | 3.2 | 9.7 | 0.00 | 0.00 | 0.00 | 69 | 1008.6 |
| 20260506193052 | 5 | 230 | 3.2 | 9.7 | 0.00 | 0.00 | 0.00 | 69 | 1008.5 |
| 20260506192538 | 5 | 192 | 3.2 | 9.7 | 0.00 | 0.00 | 0.00 | 71 | 1008.5 |
| 20260506192036 | 4 | 194 | 3.2 | 9.7 | 0.00 | 0.00 | 0.00 | 70 | 1008.4 |
| 20260506191551 | 4 | 217 | 1.6 | 9.7 | 0.00 | 0.00 | 0.00 | 70 | 1008.4 |
| 20260506191038 | 4 | 144 | 1.6 | 9.7 | 0.00 | 0.00 | 0.00 | 70 | 1008.4 |
| 20260506190538 | 4 | 0 | 0.0 | 6.4 | 0.00 | 0.00 | 0.00 | 72 | 1008.4 |
| 20260506190049 | 3 | 0 | 0.0 | 8.0 | 0.00 | 0.00 | 0.00 | 71 | 1008.3 |
| 20260506185538 | 4 | 138 | 3.2 | 8.0 | 0.00 | 0.00 | 0.00 | 72 | 1008.3 |
| 20260506185035 | 3 | 109 | 3.2 | 8.0 | 0.00 | 0.00 | 0.00 | 72 | 1008.4 |
| 20260506184543 | 4 | 174 | 1.6 | 6.4 | 0.00 | 0.00 | 0.00 | 72 | 1008.3 |
| 20260506184035 | 3 | 0 | 1.6 | 8.0 | 0.00 | 0.00 | 0.00 | 73 | 1008.3 |
| 20260506183535 | 3 | 183 | 3.2 | 8.0 | 0.00 | 0.00 | 0.00 | 74 | 1008.3 |
| 20260506183052 | 3 | 171 | 1.6 | 6.4 | 0.00 | 0.00 | 0.00 | 74 | 1008.3 |
| 20260506182535 | 3 | 0 | 0.0 | 6.4 | 0.00 | 0.00 | 0.00 | 74 | 1008.2 |
| 20260506182035 | 3 | 0 | 0.0 | 6.4 | 0.00 | 0.00 | 0.00 | 76 | 1008.2 |
| 20260506181550 | 3 | 0 | 0.0 | 8.0 | 0.00 | 0.00 | 0.00 | 76 | 1008.2 |
| 20260506181038 | 3 | 0 | 1.6 | 9.7 | 0.00 | 0.00 | 0.00 | 75 | 1008.1 |
| 20260506180537 | 3 | 216 | 3.2 | 9.7 | 0.00 | 0.00 | 0.00 | 75 | 1008.1 |
| 20260506180049 | 3 | 165 | 1.6 | 12.9 | 0.00 | 0.00 | 0.00 | 75 | 1008.1 |
| 20260506175537 | 3 | 165 | 1.6 | 12.9 | 0.00 | 0.00 | 0.00 | 76 | 1008.0 |
| 20260506175034 | 3 | 206 | 1.6 | 8.0 | 0.00 | 0.00 | 0.00 | 75 | 1008.0 |
| 20260506174545 | 3 | 190 | 4.8 | 8.0 | 0.00 | 0.00 | 0.00 | 76 | 1007.9 |
| 20260506174038 | 3 | 201 | 1.6 | 8.0 | 0.00 | 0.00 | 0.00 | 76 | 1007.9 |
| 20260506173539 | 3 | 188 | 1.6 | 6.4 | 0.00 | 0.00 | 0.00 | 76 | 1007.8 |
| 20260506173051 | 3 | 228 | 0.0 | 4.8 | 0.00 | 0.00 | 0.00 | 79 | 1007.8 |
| 20260506172535 | 2 | 0 | 0.0 | 4.8 | 0.00 | 0.00 | 0.00 | 79 | 1007.9 |
| 20260506172039 | 2 | 228 | 1.6 | 4.8 | 0.00 | 0.00 | 0.00 | 79 | 1007.8 |
| 20260506171555 | 2 | 0 | 0.0 | 0.0 | 0.00 | 0.00 | 0.00 | 81 | 1007.8 |
| 20260506171038 | 2 | 0 | 0.0 | 0.0 | 0.00 | 0.00 | 0.00 | 82 | 1007.8 |
| 20260506170540 | 2 | 0 | 0.0 | 0.0 | 0.00 | 0.00 | 0.00 | 82 | 1007.8 |
| 20260506170048 | 2 | 0 | 0.0 | 0.0 | 0.00 | 0.00 | 0.00 | 83 | 1007.8 |
| 20260506165536 | 2 | 0 | 0.0 | 0.0 | 0.00 | 0.00 | 0.00 | 84 | 1007.7 |
| 20260506165036 | 2 | 0 | 0.0 | 0.0 | 0.00 | 0.00 | 0.00 | 84 | 1007.7 |
| 20260506164548 | 2 | 0 | 0.0 | 0.0 | 0.00 | 0.00 | 0.00 | 84 | 1007.7 |
| 20260506164035 | 2 | 0 | 0.0 | 0.0 | 0.00 | 0.00 | 0.00 | 85 | 1007.7 |
| 20260506163536 | 2 | 0 | 0.0 | 0.0 | 0.00 | 0.00 | 0.00 | 86 | 1007.6 |
| 20260506163049 | 2 | 0 | 0.0 | 0.0 | 0.00 | 0.00 | 0.00 | 85 | 1007.6 |
| 20260506162537 | 2 | 0 | 0.0 | 0.0 | 0.00 | 0.00 | 0.00 | 84 | 1007.6 |
| 20260506162036 | 2 | 0 | 0.0 | 0.0 | 0.00 | 0.00 | 0.00 | 84 | 1007.4 |
| 20260506161556 | 2 | 0 | 0.0 | 0.0 | 0.00 | 0.00 | 0.00 | 85 | 1007.6 |
| 20260506161038 | 2 | 0 | 0.0 | 0.0 | 0.00 | 0.00 | 0.00 | 85 | 1007.4 |
| 20260506160535 | 2 | 0 | 0.0 | 0.0 | 0.00 | 0.00 | 0.00 | 85 | 1007.5 |
| 20260506160042 | 2 | 0 | 0.0 | 0.0 | 0.00 | 0.00 | 0.00 | 85 | 1007.4 |
| 20260506155536 | 1 | 0 | 0.0 | 0.0 | 0.00 | 0.00 | 0.00 | 85 | 1007.6 |
| 20260506155039 | 1 | 0 | 0.0 | 3.2 | 0.00 | 0.00 | 0.00 | 84 | 1007.5 |
| 20260506154608 | 1 | 0 | 0.0 | 3.2 | 0.00 | 0.00 | 0.00 | 84 | 1007.5 |
| 20260506154036 | 1 | 0 | 0.0 | 3.2 | 0.00 | 0.00 | 0.00 | 85 | 1007.3 |
| 20260506153536 | 1 | 0 | 0.0 | 3.2 | 0.00 | 0.00 | 0.00 | 85 | 1007.4 |
| 20260506153049 | 1 | 0 | 0.0 | 0.0 | 0.00 | 0.00 | 0.00 | 85 | 1007.3 |
| 20260506152535 | 1 | 0 | 0.0 | 0.0 | 0.00 | 0.00 | 0.00 | 86 | 1007.4 |
| 20260506152035 | 1 | 0 | 0.0 | 0.0 | 0.00 | 0.00 | 0.00 | 86 | 1007.4 |
| 20260506151541 | 1 | 0 | 0.0 | 0.0 | 0.00 | 0.00 | 0.00 | 87 | 1007.2 |
| 20260506151035 | 1 | 0 | 0.0 | 6.4 | 0.00 | 0.00 | 0.00 | 87 | 1007.3 |
| 20260506150535 | 1 | 0 | 1.6 | 6.4 | 0.00 | 0.00 | 0.00 | 87 | 1007.3 |
| 20260506150052 | 1 | 228 | 1.6 | 4.8 | 0.00 | 0.00 | 0.00 | 87 | 1007.2 |
| 20260506145538 | 1 | 228 | 1.6 | 3.2 | 0.00 | 0.00 | 0.00 | 87 | 1007.3 |
| 20260506145037 | 1 | 0 | 0.0 | 0.0 | 0.00 | 0.00 | 0.00 | 86 | 1007.2 |
| 20260506144558 | 1 | 0 | 0.0 | 6.4 | 0.00 | 0.00 | 0.00 | 86 | 1007.4 |
| 20260506144034 | 1 | 0 | 0.0 | 6.4 | 0.00 | 0.00 | 0.00 | 85 | 1007.3 |
| 20260506143539 | 1 | 228 | 3.2 | 8.0 | 0.00 | 0.00 | 0.00 | 85 | 1007.2 |
| 20260506143050 | 1 | 228 | 3.2 | 8.0 | 0.00 | 0.00 | 0.00 | 85 | 1007.2 |
| 20260506142538 | 1 | 220 | 1.6 | 8.0 | 0.00 | 0.00 | 0.00 | 86 | 1007.2 |
| 20260506142034 | 1 | 220 | 3.2 | 8.0 | 0.00 | 0.00 | 0.00 | 86 | 1007.2 |
| 20260506141551 | 0 | 210 | 3.2 | 8.0 | 0.00 | 0.00 | 0.00 | 85 | 1007.3 |
| 20260506141035 | 0 | 184 | 3.2 | 8.0 | 0.00 | 0.00 | 0.00 | 85 | 1007.2 |
| 20260506140537 | 0 | 184 | 3.2 | 8.0 | 0.00 | 0.00 | 0.00 | 84 | 1007.3 |
| 20260506140059 | 0 | 202 | 0.0 | 4.8 | 0.00 | 0.00 | 0.00 | 84 | 1007.2 |
| 20260506135535 | 0 | 202 | 0.0 | 6.4 | 0.00 | 0.00 | 0.00 | 83 | 1007.2 |
| 20260506135038 | 0 | 202 | 3.2 | 6.4 | 0.00 | 0.00 | 0.00 | 82 | 1007.3 |
| 20260506134549 | 0 | 211 | 0.0 | 4.8 | 0.00 | 0.00 | 0.00 | 83 | 1007.3 |
| 20260506134035 | 0 | 211 | 0.0 | 4.8 | 0.00 | 0.00 | 0.00 | 82 | 1007.3 |
| 20260506133535 | 1 | 0 | 1.6 | 4.8 | 0.00 | 0.00 | 0.00 | 81 | 1007.3 |
| 20260506133052 | 1 | 211 | 0.0 | 4.8 | 0.00 | 0.00 | 0.00 | 81 | 1007.2 |
| 20260506132537 | 1 | 211 | 1.6 | 4.8 | 0.00 | 0.00 | 0.00 | 81 | 1007.2 |
| 20260506132042 | 1 | 211 | 0.0 | 4.8 | 0.00 | 0.00 | 0.00 | 80 | 1007.2 |
| 20260506131548 | 1 | 211 | 1.6 | 4.8 | 0.00 | 0.00 | 0.00 | 80 | 1007.2 |
| 20260506131039 | 1 | 211 | 1.6 | 4.8 | 0.00 | 0.00 | 0.00 | 80 | 1007.2 |
| 20260506130537 | 1 | 0 | 0.0 | 0.0 | 0.00 | 0.00 | 0.00 | 80 | 1007.2 |
| 20260506130052 | 1 | 0 | 0.0 | 0.0 | 0.00 | 0.00 | 0.00 | 81 | 1007.2 |
| 20260506125538 | 1 | 0 | 0.0 | 0.0 | 0.00 | 0.00 | 0.00 | 81 | 1007.2 |
| 20260506125039 | 1 | 0 | 0.0 | 0.0 | 0.00 | 0.00 | 0.00 | 81 | 1007.1 |
| 20260506124549 | 1 | 0 | 0.0 | 0.0 | 0.00 | 0.00 | 0.00 | 81 | 1007.1 |
| 20260506124036 | 0 | 0 | 0.0 | 0.0 | 0.00 | 0.00 | 0.00 | 80 | 1007.1 |
| 20260506123541 | 1 | 0 | 0.0 | 0.0 | 0.00 | 0.00 | 0.00 | 80 | 1007.1 |
| 20260506123051 | 1 | 0 | 0.0 | 0.0 | 0.00 | 0.00 | 0.00 | 80 | 1007.1 |
| 20260506122535 | 0 | 0 | 0.0 | 0.0 | 0.00 | 0.00 | 0.00 | 81 | 1007.1 |
| 20260506122036 | 0 | 0 | 0.0 | 0.0 | 0.00 | 0.00 | 0.00 | 80 | 1007.0 |
| 20260506121551 | 0 | 0 | 0.0 | 0.0 | 0.00 | 0.00 | 0.00 | 80 | 1006.9 |
| 20260506121038 | 0 | 0 | 0.0 | 0.0 | 0.00 | 0.00 | 0.00 | 81 | 1006.9 |
| 20260506120537 | 0 | 0 | 0.0 | 0.0 | 0.00 | 0.00 | 0.00 | 81 | 1006.9 |
| 20260506120048 | 0 | 0 | 0.0 | 0.0 | 0.00 | 0.00 | 0.00 | 80 | 1006.7 |
| 20260506115539 | 0 | 0 | 0.0 | 0.0 | 0.00 | 0.00 | 0.00 | 80 | 1006.8 |
| 20260506115038 | 1 | 0 | 0.0 | 0.0 | 0.00 | 0.00 | 0.00 | 79 | 1006.9 |
| 20260506114557 | 1 | 0 | 0.0 | 0.0 | 0.00 | 0.00 | 0.00 | 79 | 1006.7 |
| 20260506114038 | 1 | 0 | 0.0 | 0.0 | 0.00 | 0.00 | 0.00 | 79 | 1006.8 |
| 20260506113535 | 1 | 0 | 0.0 | 0.0 | 0.00 | 0.00 | 0.00 | 80 | 1006.7 |
| 20260506113050 | 1 | 0 | 0.0 | 0.0 | 0.00 | 0.00 | 0.00 | 78 | 1006.8 |
| 20260506112535 | 1 | 0 | 0.0 | 0.0 | 0.00 | 0.00 | 0.00 | 79 | 1006.8 |
| 20260506112035 | 1 | 0 | 0.0 | 0.0 | 0.00 | 0.00 | 0.00 | 79 | 1006.7 |
| 20260506111544 | 1 | 0 | 0.0 | 0.0 | 0.00 | 0.00 | 0.00 | 80 | 1006.7 |
| 20260506111037 | 1 | 0 | 0.0 | 0.0 | 0.00 | 0.00 | 0.00 | 78 | 1006.7 |
| 20260506110535 | 1 | 0 | 0.0 | 0.0 | 0.00 | 0.00 | 0.00 | 76 | 1006.6 |
| 20260506110048 | 1 | 0 | 0.0 | 0.0 | 0.00 | 0.00 | 0.00 | 77 | 1006.6 |
| 20260506105536 | 1 | 0 | 0.0 | 0.0 | 0.00 | 0.00 | 0.00 | 76 | 1006.5 |
| 20260506105036 | 1 | 0 | 0.0 | 0.0 | 0.00 | 0.00 | 0.00 | 75 | 1006.5 |
| 20260506104556 | 1 | 0 | 0.0 | 0.0 | 0.00 | 0.00 | 0.00 | 76 | 1006.6 |
| 20260506104036 | 1 | 0 | 0.0 | 1.6 | 0.00 | 0.00 | 0.00 | 75 | 1006.5 |
| 20260506103538 | 1 | 0 | 0.0 | 4.8 | 0.00 | 0.00 | 0.00 | 74 | 1006.6 |
| 20260506103047 | 2 | 0 | 1.6 | 4.8 | 0.00 | 0.00 | 0.00 | 74 | 1006.5 |
| 20260506102536 | 2 | 211 | 1.6 | 4.8 | 0.00 | 0.00 | 0.00 | 74 | 1006.6 |
| 20260506102035 | 2 | 211 | 3.2 | 4.8 | 0.00 | 0.00 | 0.00 | 73 | 1006.4 |
| 20260506101549 | 2 | 211 | 3.2 | 4.8 | 0.00 | 0.00 | 0.00 | 74 | 1006.5 |
| 20260506101035 | 1 | 211 | 1.6 | 4.8 | 0.00 | 0.00 | 0.00 | 74 | 1006.5 |
| 20260506100536 | 1 | 0 | 0.0 | 3.2 | 0.00 | 0.00 | 0.00 | 74 | 1006.4 |
| 20260506100045 | 2 | 0 | 0.0 | 4.8 | 0.00 | 0.00 | 0.00 | 74 | 1006.4 |
| 20260506095537 | 2 | 211 | 0.0 | 6.4 | 0.00 | 0.00 | 0.00 | 74 | 1006.5 |
| 20260506095037 | 2 | 211 | 3.2 | 6.4 | 0.00 | 0.00 | 0.00 | 73 | 1006.4 |
| 20260506094546 | 2 | 211 | 0.0 | 4.8 | 0.00 | 0.00 | 0.00 | 74 | 1006.3 |
| 20260506094037 | 2 | 211 | 1.6 | 11.3 | 0.00 | 0.00 | 0.00 | 73 | 1006.4 |
| 20260506093539 | 2 | 0 | 3.2 | 12.9 | 0.00 | 0.00 | 0.00 | 74 | 1006.4 |
| 20260506093048 | 2 | 237 | 6.4 | 12.9 | 0.00 | 0.00 | 0.00 | 74 | 1006.4 |
| 20260506092535 | 2 | 235 | 6.4 | 12.9 | 0.00 | 0.00 | 0.00 | 74 | 1006.4 |
| 20260506092039 | 2 | 222 | 4.8 | 9.7 | 0.00 | 0.00 | 0.00 | 74 | 1006.3 |
| 20260506091543 | 2 | 198 | 3.2 | 8.0 | 0.00 | 0.00 | 0.00 | 74 | 1006.1 |
| 20260506091035 | 2 | 199 | 3.2 | 4.8 | 0.00 | 0.00 | 0.00 | 74 | 1006.2 |
| 20260506090537 | 2 | 199 | 1.6 | 4.8 | 0.00 | 0.00 | 0.00 | 74 | 1006.0 |
| 20260506090051 | 1 | 0 | 1.6 | 11.3 | 0.00 | 0.00 | 0.00 | 75 | 1006.1 |